009  
ASUS46 KPQR 151210  
RWROR  
 
OREGON REGIONAL WEATHER ROUNDUP  
NATIONAL WEATHER SERVICE PORTLAND OR  
500 AM PDT MON AUG 15 2022  
 
NOTE: "FAIR" INDICATES FEW OR NO CLOUDS BELOW 12,000 FEET WITH  
NO SIGNIFICANT WEATHER AND/OR S TO VISIBILITY
.  
 
ORZ001>013-151300-  
NORTHWEST OREGON  
 
 
CITY SKY/WX TMP DP RH WIND PRES REMARKS
 
ASTORIA CLOUDY 57 56 96 CALM 30.08S  
6HR MIN TEMP: 54; 6HR MAX TEMP: 61;  
 
TILLAMOOK MOCLDY 50 48 93 CALM 30.10F  
NEWPORT CLOUDY 55 55 100 CALM 30.11F  
FLORENCE FAIR 54 54 100 CALM 30.08F  
PORTLAND CLEAR 63 56 78 NW5 30.07R  
6HR MIN TEMP: 63; 6HR MAX TEMP: 72;  
 
VANCOUVER WA CLEAR 60 54 80 CALM 30.06S  
6HR MIN TEMP: 59; 6HR MAX TEMP: 72;  
 
SCAPPOOSE CLEAR 55 54 96 CALM 30.05F  
6HR MIN TEMP: 55; 6HR MAX TEMP: 69;  
 
HILLSBORO CLEAR 53 51 93 CALM 30.06S  
6HR MIN TEMP: 53; 6HR MAX TEMP: 68;  
 
AURORA CLEAR 57 55 93 CALM 30.07S  
6HR MIN TEMP: 57; 6HR MAX TEMP: 72;  
 
MCMINNVILLE CLEAR 57 53 86 NW3 30.06S  
6HR MIN TEMP: 57; 6HR MAX TEMP: 65;  
 
SALEM CLEAR 57 53 86 S3 30.05F  
6HR MIN TEMP: 55; 6HR MAX TEMP: 69;  
 
CORVALLIS CLEAR 58 53 84 NW6 30.07F  
EUGENE CLEAR 52 49 89 SE3 30.07S  
6HR MIN TEMP: 52; 6HR MAX TEMP: 67;  
 
CRESWELL CLEAR 50 50 100 CALM 30.07S  

 
 
ORZ021-028-151300-  
SOUTHWEST OREGON  
 
 
CITY SKY/WX TMP DP RH WIND PRES REMARKS
 
NORTH BEND CLOUDY 60 59 96 N7 30.10F  
6HR MIN TEMP: 58; 6HR MAX TEMP: 60;  
 
BROOKINGS CLOUDY 56 56 100 CALM 30.03F FOG  
ROSEBURG CLEAR 58 52 80 CALM 30.07S  
6HR MIN TEMP: 58; 6HR MAX TEMP: 71;  
 
SEXTON SUMMIT CLEAR 61 42 49 CALM 30.13F  
6HR MIN TEMP: 56; 6HR MAX TEMP: 62;  
 
GRANTS PASS FAIR 59 50 72 CALM 30.07F  
MEDFORD CLEAR 59 46 62 CALM 30.05S  
6HR MIN TEMP: 59; 6HR MAX TEMP: 74;  
 

 
 
ORZ014>016-041-151300-  
COLUMBIA GORGE  
 
 
CITY SKY/WX TMP DP RH WIND PRES REMARKS
 
TROUTDALE CLEAR 58 52 80 CALM 30.06S  
6HR MIN TEMP: 57; 6HR MAX TEMP: 73;  
 
HOOD RIVER CLEAR 54 45 71 S6 30.03F  
THE DALLES CLEAR 63 45 51 E6 30.00S  
6HR MIN TEMP: 62; 6HR MAX TEMP: 79;  
 

 
 
ORZ029>031-041-044-049-050-061>064-502-503-505>511-151300-  
EASTERN OREGON  
 
 
CITY SKY/WX TMP DP RH WIND PRES REMARKS
 
MADRAS CLEAR 50 36 57 SE5 30.11F  
REDMOND CLEAR 50 41 71 CALM 30.11F  
6HR MIN TEMP: 50; 6HR MAX TEMP: 72;  
 
BEND CLEAR 54 43 66 CALM 30.14F  
PRINEVILLE MOCLDY 46 34 61 CALM 30.13S  
KLAMATH FALLS CLEAR 48 42 80 CALM 30.12F  
6HR MIN TEMP: 47; 6HR MAX TEMP: 70;  
 
LAKEVIEW CLEAR 60 35 39 N14 30.14F  
HERMISTON CLEAR 57 44 62 E3 30.00S  
6HR MIN TEMP: 54; 6HR MAX TEMP: 67;  
 
PENDLETON CLEAR 57 37 47 SE5 30.04S  
6HR MIN TEMP: 57; 6HR MAX TEMP: 67;  
 
JOHN DAY CLEAR 56 33 42 E6 30.13S  
MEACHAM CLEAR 37 34 89 CALM 30.14S  
6HR MIN TEMP: 37; 6HR MAX TEMP: 50;  
 
LA GRANDE CLEAR 50 37 61 NE3 30.11R  
6HR MIN TEMP: 49; 6HR MAX TEMP: 66;  
 
BAKER CITY CLEAR 46 37 71 W3 30.11S  
6HR MIN TEMP: 43; 6HR MAX TEMP: 61;  
 
BURNS CLEAR 53 32 44 W6 30.11S  
6HR MIN TEMP: 53; 6HR MAX TEMP: 72;  
 
ROME N/A 55 29 36 SE5 30.08S  
6HR MIN TEMP: 55; 6HR MAX TEMP: 72;  
 
ONTARIO CLEAR 68 34 28 N7 29.99S  
6HR MIN TEMP: 67; 6HR MAX TEMP: 79;  
 

 
 
OTHER REGIONAL REPORTS  
 
CITY SKY/WX TMP DP RH WIND PRES REMARKS
 
SEATTLE PTCLDY 60 52 74 CALM 30.07S  
6HR MIN TEMP: 59; 6HR MAX TEMP: 67;  
 
SPOKANE CLEAR 62 41 46 S7 30.06S  
6HR MIN TEMP: 62; 6HR MAX TEMP: 71;  
 
VANCOUVER BC PTCLDY 59 59 100 E7 30.05F  
PRINCE GEORGE PTCLDY 52 52 100 CALM 30.06F  
DAWSON CREEK CLEAR 59 50 72 S8 29.96S  
WHITEHORSE PTCLDY 52 45 76 SW7 29.86R  
BOISE CLEAR 63 37 38 S5 30.01R  
6HR MIN TEMP: 63; 6HR MAX TEMP: 75;  
 
REDDING CLEAR 70 40 33 CALM 29.85S  
6HR MIN TEMP: 69; 6HR MAX TEMP: 84;  
 
SAN FRANCISCO PTCLDY 58 52 80 NW8 29.88F  
6HR MIN TEMP: 58; 6HR MAX TEMP: 61;  
 

 
 
 
 
CLICK HERE TO GO TO PREVIOUS BULLETINS.

The Nexlab OR Page Main Text Page